Date String (YYYY-MM-DD hh:mm:ss) UTC,Instrument flags,Ambient pressure (hPa),Sample flow (lpm),Bypass flow (lpm),Sample temperature (°C),Ambient temperature (°C),ASC tube jacket temperature (°C),LED temperature (°C),Box temperature (°C),Sample RH (%),Span deviation,Mass concentration (μg/m³),Mass concentration (μg/m³),Mass concentration (μg/m³)
DateTimeUTC,F1_M11,P_M11,Q1_M11,Q2_M11,T1_M11,T2_M11,T3_M11,T4_M11,T5_M11,U1_M11,ZSPAN_M11,X0_M11,X2_M11,X1_M11
2023-05-19 03:00:00,,0835.1,5.01,0.00,29.6,28.0,00.0,38.0,31.2,24.8,0002.1,0009.65,0006.00,0005.53
2023-05-19 03:01:00,,0835.1,4.99,0.00,29.6,28.0,00.0,38.0,31.2,24.2,0002.6,0008.90,0005.53,0005.10
2023-05-19 03:02:00,,0835.1,5.00,0.00,29.6,28.0,00.0,38.0,31.2,24.0,0002.5,0008.56,0005.23,0004.82
2023-05-19 03:03:00,,0835.2,5.01,0.00,29.6,28.0,00.0,38.0,31.1,23.9,0002.2,0008.11,0004.89,0004.50
2023-05-19 03:04:00,,0835.1,4.99,0.00,29.6,28.0,00.0,38.0,31.1,24.0,0001.8,0007.52,0004.43,0004.09
2023-05-19 03:05:00,,0835.1,5.01,0.00,29.6,28.0,00.0,38.0,31.1,24.0,0001.4,0006.55,0003.97,0003.66
2023-05-19 03:06:00,,0835.1,5.01,0.00,29.6,27.9,00.0,38.0,31.1,24.0,0001.5,0005.68,0003.61,0003.32
2023-05-19 03:07:00,,0835.1,5.01,0.00,29.6,27.9,00.0,38.0,31.1,23.9,0000.0,0004.83,0003.26,0002.91
2023-05-19 03:08:00,,0835.2,4.98,0.00,29.6,27.9,00.0,38.0,31.1,23.9,0000.0,0004.01,0002.84,0002.43
2023-05-19 03:09:00,,0835.1,4.99,0.00,29.6,27.9,00.0,38.0,31.1,24.1,0000.0,0003.87,0002.70,0002.27
2023-05-19 03:10:00,,0835.1,5.01,0.00,29.6,27.9,00.0,38.0,31.1,24.0,0000.0,0003.54,0002.37,0001.95
2023-05-19 03:11:00,,0835.1,5.00,0.00,29.5,27.9,00.0,37.9,31.1,24.1,0000.0,0003.33,0002.15,0001.76
2023-05-19 03:12:00,,0835.1,5.01,0.00,29.5,27.8,00.0,37.9,31.1,24.0,0000.0,0003.36,0002.18,0001.75
2023-05-19 03:13:00,,0835.1,4.98,0.00,29.5,27.8,00.0,37.9,31.1,24.0,0000.0,0003.38,0002.23,0001.75
2023-05-19 03:14:00,,0835.2,5.00,0.00,29.5,27.8,00.0,37.9,31.1,24.1,0000.0,0003.58,0002.32,0001.77
2023-05-19 03:15:00,,0835.1,5.01,0.00,29.5,27.8,00.0,37.9,31.1,24.1,0000.0,0003.75,0002.40,0001.78
2023-05-19 03:16:00,,0835.2,5.00,0.00,29.5,27.8,00.0,37.9,31.1,23.9,0000.0,0003.86,0002.44,0001.79
2023-05-19 03:17:00,,0835.2,4.99,0.00,29.5,27.8,00.0,37.9,31.0,23.8,0000.0,0004.32,0002.45,0001.82
2023-05-19 03:18:00,,0835.1,5.01,0.00,29.5,27.8,00.0,37.9,31.0,23.6,0000.0,0005.39,0002.53,0001.87
2023-05-19 03:19:00,,0835.2,5.01,0.00,29.5,27.8,00.0,37.9,31.0,23.5,0000.0,0005.78,0002.67,0001.92
2023-05-19 03:20:00,,0835.2,5.00,0.00,29.5,27.8,00.0,37.9,31.0,23.6,0000.0,0005.83,0002.70,0001.96
2023-05-19 03:21:00,,0835.2,4.99,0.00,29.5,27.8,00.0,37.9,31.0,23.5,0000.0,0005.77,0002.73,0002.00
2023-05-19 03:22:00,,0835.2,5.01,0.00,29.5,27.7,00.0,37.9,31.0,23.4,0000.0,0005.66,0002.76,0002.04
2023-05-19 03:23:00,,0835.2,5.01,0.00,29.4,27.7,00.0,37.9,31.0,23.4,0000.0,0005.70,0002.76,0002.06
2023-05-19 03:24:00,,0835.2,4.98,0.00,29.4,27.7,00.0,37.9,31.0,23.5,0000.0,0005.67,0002.74,0002.08
2023-05-19 03:25:00,,0835.3,5.00,0.00,29.4,27.7,00.0,37.9,31.0,23.6,0000.0,0005.65,0002.72,0002.09
2023-05-19 03:26:00,,0835.3,5.01,0.00,29.4,27.7,00.0,37.9,31.0,23.7,0000.0,0005.64,0002.69,0002.12
2023-05-19 03:27:00,,0835.3,4.99,0.00,29.4,27.7,00.0,37.9,31.0,23.6,0000.0,0005.88,0002.70,0002.13
2023-05-19 03:28:00,,0835.3,5.00,0.00,29.4,27.7,00.0,37.8,31.0,23.6,0000.0,0005.49,0002.76,0002.16
2023-05-19 03:29:00,,0835.3,5.00,0.00,29.4,27.7,00.0,37.8,31.0,24.0,0000.0,0004.59,0002.77,0002.18
2023-05-19 03:30:00,,0835.3,5.01,0.00,29.4,27.7,00.0,37.8,31.0,24.2,0000.0,0004.34,0002.73,0002.20
2023-05-19 03:31:00,,0835.3,4.99,0.00,29.4,27.7,00.0,37.8,31.0,24.1,0000.0,0004.38,0002.75,0002.24
2023-05-19 03:32:00,,0835.2,5.00,0.00,29.4,27.7,00.0,37.8,31.0,24.2,0000.0,0004.34,0002.75,0002.25
2023-05-19 03:33:00,,0835.2,5.00,0.00,29.4,27.7,00.0,37.8,30.9,24.3,0000.0,0004.36,0002.75,0002.24
2023-05-19 03:34:00,,0835.2,5.00,0.00,29.4,27.7,00.0,37.8,30.9,24.1,0000.0,0004.34,0002.77,0002.26
2023-05-19 03:35:00,,0835.2,5.00,0.00,29.4,27.7,00.0,37.8,30.9,24.1,0000.0,0004.32,0002.78,0002.27
2023-05-19 03:36:00,,0835.2,5.00,0.00,29.4,27.7,00.0,37.8,30.9,24.3,0000.0,0004.27,0002.78,0002.27
2023-05-19 03:37:00,,0835.2,5.00,0.00,29.4,27.7,00.0,37.8,30.9,24.3,0000.0,0004.40,0002.84,0002.28
2023-05-19 03:38:00,,0835.3,4.99,0.00,29.4,27.7,00.0,37.8,30.9,24.1,0000.0,0004.36,0002.88,0002.29
2023-05-19 03:39:00,,0835.4,5.00,0.00,29.4,27.7,00.0,37.8,30.9,24.0,0000.0,0004.42,0002.92,0002.29
2023-05-19 03:40:00,,0835.3,5.00,0.00,29.4,27.7,00.0,37.8,30.9,24.1,0000.0,0004.39,0002.90,0002.28
2023-05-19 03:41:00,,0835.3,5.00,0.00,29.4,27.7,00.0,37.8,30.9,24.1,0000.0,0004.52,0002.91,0002.27
2023-05-19 03:42:00,,0835.4,4.99,0.00,29.4,27.7,00.0,37.8,30.9,23.9,0000.0,0004.78,0002.95,0002.27
2023-05-19 03:43:00,,0835.4,5.00,0.00,29.4,27.6,00.0,37.8,30.9,23.8,0000.0,0004.95,0003.02,0002.27
2023-05-19 03:44:00,,0835.5,5.01,0.00,29.4,27.6,00.0,37.8,30.9,23.3,0000.0,0005.16,0003.11,0002.33
2023-05-19 03:45:00,,0835.5,5.01,0.00,29.3,27.6,00.0,37.8,30.9,23.6,0000.0,0005.27,0003.13,0002.34
2023-05-19 03:46:00,,0835.5,5.01,0.00,29.3,27.6,00.0,37.8,30.9,23.5,0000.0,0005.21,0003.13,0002.34
2023-05-19 03:47:00,,0835.5,4.99,0.00,29.3,27.6,00.0,37.7,30.9,23.4,0000.0,0005.15,0003.13,0002.35
2023-05-19 03:48:00,,0835.5,5.00,0.00,29.3,27.6,00.0,37.7,30.9,23.4,0000.0,0005.00,0003.10,0002.35
2023-05-19 03:49:00,,0835.5,5.01,0.00,29.3,27.6,00.0,37.7,30.9,23.4,0000.0,0004.79,0003.09,0002.36
2023-05-19 03:50:00,,0835.5,4.99,0.00,29.3,27.6,00.0,37.7,30.9,23.2,0000.0,0004.66,0003.04,0002.38
2023-05-19 03:51:00,,0835.5,4.99,0.00,29.3,27.6,00.0,37.7,30.9,23.4,0000.0,0004.62,0003.03,0002.40
2023-05-19 03:52:00,,0835.5,5.00,0.00,29.3,27.6,00.0,37.7,30.9,23.4,0000.0,0004.60,0003.05,0002.42
2023-05-19 03:53:00,,0835.5,5.01,0.00,29.3,27.6,00.0,37.7,30.9,23.5,0000.0,0004.19,0002.97,0002.40
2023-05-19 03:54:00,,0835.5,5.01,0.00,29.3,27.6,00.0,37.7,30.9,23.5,0000.0,0004.15,0002.98,0002.42
2023-05-19 03:55:00,,0835.5,4.98,0.00,29.3,27.6,00.0,37.7,30.9,23.4,0000.0,0004.17,0002.96,0002.44
2023-05-19 03:56:00,,0835.5,5.00,0.00,29.3,27.6,00.0,37.7,30.9,23.5,0000.0,0004.14,0002.94,0002.46
2023-05-19 03:57:00,,0835.5,5.01,0.00,29.3,27.6,00.0,37.7,30.8,23.4,0000.0,0004.24,0003.01,0002.50
2023-05-19 03:58:00,,0835.5,5.01,0.00,29.3,27.6,00.0,37.7,30.8,23.3,0000.0,0004.25,0003.02,0002.52
2023-05-19 03:59:00,,0835.5,4.99,0.00,29.3,27.6,00.0,37.7,30.8,23.4,0000.0,0004.22,0003.03,0002.52
